NOAA 16 DEB, 41356

Orbit data source: Space-Track

NOAA 16 DEB, 41356 is space debris in SSO originally from a launch on Thu, 21 Sep 2000 UTC launched from the Air Force Western Test Range (AFWTR). Debris objects in space refer to the collection of defunct objects orbiting the Earth. Examples of debris include non-operational satellites, rocket bodies, and fragments generated from explosions, collisions, or faulty payload assembly.

Loading next visibility...
Identifier
41356, 2000-055HZ
Orbit
SSO
Country
Flag of USUS
Related business
Manufacturer
Unknown
Mission
Spacecraft
Bus & Motor
Unknown
Mass
Unknown
Launch date (UTC)
2000-09-21 (26 years ago)
Launch vehicle
Unknown
Launch site
Air Force Western Test Range (AFWTR)
Object type
Payload
Rocket body
Debris
Shape & HBR
Unknown shape, 0.1 m
Radar Cross Section
Medium (>0.1 m² and <1 m²)

Expand to show TLE details & history
Last TLE update: 21 hours ago

TLE from 21 hours ago
0 NOAA 16 DEB
1 41356U 00055HZ  26264.39122985  .00001941  00000-0  85789-3 0  9993
2 41356  98.7445 319.6125 0038369 215.5554 144.3067 14.24018913551066
Epoch: 2026-09-21T09:23Z
TLE epoch observation values (Epoch: 2026-09-21T09:23:22.259Z)
Latitude
-0.00001°
Longitude
178.49802°
Altitude
837.157 km
Speed
7.423 km/s
True Right ascension
21h 18m 27s
True Declination
0° 00' 00"
Sunlit
Object was in full shadow at epoch
Visualization orbit readout
Latitude
Unknown
Longitude
Unknown
Altitude
Unknown
Speed
Unknown
Apparent Right ascension
Unknown
Apparent Declination
Unknown
Sunlit
N/A
Visualization observer readout
Local Sidereal Time
22:58:12
Azimuth
Unknown
Elevation
Unknown
Doppler factor
Unknown
Orbital elements
Apogee altitude
836.524 km
Perigee altitude
781.372 km
Semi-major axis
7,187.085 km
Eccentricity
0.00384
Inclination
98.7445°
RAAN
319.6125°
Arg. of periapsis
215.5554°
True anomaly
144.56223°
Mean anomaly
144.3067°
Eccentric anomaly
144.43456°
Mean motion
3.56216 °/min
Orbital period
101.06 mins
BSTAR
0.00085789
Loading maneuver chart data...
Computing Atmospheric mass density...

Documentation

Showing up to 5 results
|